Dewpoint
64 64 64 63 62 63 63 62 61 61 61 61 59 58 57 58 56 56 55 55 54 53 51 50 49 48 47 47 48 46 46 48 48 49 49 49 49 48 47 47 47 45
64 64 63 63 62 62 64 63 61 62 61 60 58 58 58 57 57 55 54 54 53 51 49 48 47 46 47 47 46 46 45 46 45 45 47 47 47 48 47 47 46 45
64 63 63 62 61 61 62 62 60 60 59 57 57 57 56 56 56 54 54 53 51 50 49 48 47 46 45 46 46 46 47 46 46 46 47 46 46 47 47 46 46 46
63 63 62 62 61 61 61 60 60 59 58 57 56 56 55 55 54 53 52 51 50 49 49 47 47 45 45 45 46 45 46 45 45 46 46 47 47 46 46 46 45 45
63 62 62 61 61 60 59 58 58 58 57 56 56 56 55 54 53 51 51 50 50 48 48 46 46 45 45 46 45 45 45 45 46 46 45 45 46 45 45 45 44 43
63 61 60 60 60 59 58 56 55 55 55 55 55 54 54 53 52 51 51 50 47 47 45 44 44 44 45 45 45 45 44 44 45 44 43 43 43 44 44 44 44 43
61 61 60 59 59 58 57 55 55 54 54 55 54 55 54 52 51 50 48 47 45 44 42 43 43 44 44 44 44 44 43 43 41 40 40 41 41 42 40 41 39 39
61 61 60 59 59 56 55 53 54 55 55 54 55 54 53 51 49 49 47 45 43 41 42 41 42 42 43 44 42 43 44 43 42 40 40 41 42 40 42 41 42 39
60 59 59 59 57 56 53 53 54 54 54 54 54 53 52 50 49 48 45 44 42 42 39 40 40 41 43 43 43 43 41 43 42 41 42 41 41 40 38 40 41 42
59 59 58 58 56 54 54 53 53 53 53 54 54 52 49 50 49 46 45 44 41 39 38 38 40 41 41 41 39 40 41 41 40 41 41 40 39 39 39 40 40 40
59 58 57 56 55 54 54 53 53 53 54 53 53 51 50 49 47 45 44 41 41 38 37 38 40 39 38 39 41 42 41 40 40 40 41 41 42 41 40 40 41 40
58 58 56 55 54 54 53 53 53 53 53 53 52 50 49 48 46 44 42 39 37 36 37 37 37 38 37 38 38 40 41 41 41 42 41 40 40 40 40 41 41 39
58 58 57 56 54 53 53 52 52 52 52 50 50 49 48 47 44 43 43 38 37 37 36 37 37 37 38 39 39 39 41 41 42 41 41 42 40 39 39 40 39 38
58 58 57 55 53 52 51 51 51 51 51 50 49 48 47 45 43 42 42 39 39 37 37 38 38 37 37 38 38 40 41 41 42 42 42 41 41 40 41 40 38 38
56 55 55 53 51 50 50 50 50 51 50 49 49 48 47 45 43 42 40 38 38 39 37 38 39 39 37 38 38 39 41 41 41 41 42 40 39 40 40 39 38 37
53 53 52 51 50 50 50 50 50 50 50 49 48 47 45 45 43 42 40 40 39 37 38 40 40 41 49 43 43 40 41 42 42 42 41 39 39 40 39 37 35 35
51 51 50 50 50 49 50 49 49 50 50 49 48 47 46 45 44 41 42 40 39 38 39 41 41 41 39 38 38 40 43 42 41 41 40 40 40 40 39 38 35 30
50 50 50 50 49 49 48 48 49 50 50 48 48 47 47 46 45 43 43 42 41 40 42 42 43 41 37 38 37 37 42 49 41 40 41 40 39 39 39 39 39 39
50 49 49 49 49 48 49 49 49 50 49 48 47 48 47 46 44 44 44 43 43 41 42 42 44 38 37 38 37 37 38 43 39 40 40 40 39 39 38 38 37 38
51 50 49 49 49 48 49 49 50 49 49 49 47 48 47 46 46 45 45 45 43 43 44 44 44 39 37 38 37 36 37 39 40 41 41 39 39 40 40 40 38 37
49 49 49 49 48 48 49 50 50 49 48 48 47 46 46 46 45 45 45 45 45 44 46 47 43 38 37 37 37 36 36 38 43 43 41 40 40 40 40 40 40 40
50 50 50 49 49 49 50 49 49 48 48 48 47 46 45 45 45 46 45 45 45 45 44 42 42 37 36 36 37 36 36 40 43 42 41 39 40 41 39 38 39 39
51 51 51 51 50 50 49 48 48 47 47 47 46 45 44 45 46 46 46 45 45 44 43 43 40 38 36 36 36 36 37 39 42 40 40 39 39 39 38 38 39 38
52 50 50 50 49 48 48 48 47 47 47 46 44 44 46 46 45 44 45 45 45 44 43 44 40 39 36 36 36 36 39 40 41 38 41 40 39 39 37 37 36 38
52 51 50 49 48 47 48 47 46 46 47 47 45 45 46 46 45 44 44 44 43 43 45 46 43 40 37 36 36 37 39 39 41 37 40 39 38 35 39 35 30 31
50 50 49 47 46 47 47 46 46 46 45 43 43 40 39 41 41 40 42 42 43 44 44 45 44 40 40 37 37 37 37 40 41 39 39 39 37 32 38 35 29 30